カタログに戻る

ATLAS 5 CENTAUR DEB

LostHEO
NORAD 44980·DEBRIS·🇺🇸 United States

打ち上げ Oct 17, 2018 から Cape Canaveral Space Force Station

Loading…

次のパス (今後24時間)

TLE

古いSource: Space-Track

元期: Oct 15, 2025, 17:21 UTC

1 44980U 18079BP  25288.72330780 -.00000137  00000-0  00000-0 0  9997
2 44980  13.0910 335.8592 4487347  86.3596 322.0840  2.15746322 46573

AllMySatでATLAS 5 CENTAUR DEBをリアルタイム追跡

Download on the App Store